RH
5 5 5 4 4 4 4 4 4 4 4 4 4 4 4 4 4 4 4 4 4 4 4 4 4 4 4 4 4 4 4 4 4 4 4 4 4 4 4 4 4 4 5 7 8 8 9 10 10 11 13 18 24 28 31 31 31 33 35 37 39 41 41
5 5 5 4 4 4 4 4 4 4 4 4 4 4 4 4 4 4 4 4 4 4 3 3 3 3 3 3 3 4 4 4 3 3 3 3 3 3 4 4 4 4 4 5 7 7 8 9 10 10 10 12 16 22 27 30 30 30 32 35 37 40 42
5 5 5 4 4 4 4 4 4 4 4 4 4 4 4 4 4 4 4 4 4 4 4 3 3 3 3 3 3 3 3 3 3 3 3 3 3 3 3 3 3 4 4 4 5 6 7 8 9 9 10 10 11 14 20 26 29 29 29 31 34 38 41
4 4 4 4 4 4 4 4 3 4 4 3 3 4 4 4 4 4 4 4 4 4 4 4 3 3 3 3 3 3 3 3 3 3 3 3 3 3 3 3 3 3 3 4 4 5 6 7 8 9 9 9 10 10 13 19 25 29 28 28 31 34 38
4 4 4 4 4 4 3 4 4 3 3 3 3 3 4 4 4 4 4 3 4 4 4 4 3 3 3 3 3 3 3 2 2 2 2 2 3 3 3 3 3 3 3 3 4 4 5 6 6 8 8 8 9 9 10 12 17 24 27 27 28 30 34
4 4 4 4 4 4 4 4 4 4 4 4 4 4 4 4 4 4 4 3 3 3 3 3 3 3 3 3 3 3 3 3 2 2 2 2 2 2 3 3 3 3 2 3 3 4 5 5 6 6 7 8 8 8 9 10 11 16 23 26 26 27 30
4 4 4 4 4 3 3 3 3 4 4 3 4 4 3 4 4 4 4 3 3 3 3 3 3 3 3 2 2 3 2 2 2 2 2 2 2 2 2 2 2 3 2 2 3 3 4 5 5 6 6 7 7 8 8 9 9 11 16 22 25 26 27
4 4 4 3 4 3 3 4 3 3 3 3 3 3 3 3 3 3 3 3 3 3 3 3 3 2 2 2 2 2 2 2 2 2 2 2 2 2 2 2 2 2 3 2 3 3 3 4 4 5 6 6 6 7 7 8 9 9 10 15 20 24 25
4 4 4 3 3 3 3 3 3 3 3 3 3 3 3 3 3 3 3 3 3 3 3 3 3 3 3 2 3 2 2 2 2 2 2 2 2 2 2 2 2 2 2 2 3 3 3 3 4 4 5 5 6 6 6 7 8 9 9 10 14 19 22
4 4 4 3 3 3 4 3 4 4 3 3 3 3 3 3 3 3 3 3 3 3 2 3 2 3 3 2 3 3 2 2 2 2 2 2 2 2 2 2 2 2 2 2 2 3 3 3 3 4 4 5 5 5 6 6 7 8 9 9 9 13 18
4 4 4 4 4 4 4 4 4 4 4 4 3 3 3 3 3 3 3 3 3 2 3 3 2 3 3 2 3 3 2 3 2 2 2 2 2 2 2 2 2 2 2 2 2 2 3 3 3 4 4 4 5 5 5 6 6 6 8 9 8 9 13
4 4 4 4 4 4 4 4 4 4 4 4 3 3 3 3 3 3 3 3 3 3 3 3 3 3 3 2 3 2 2 2 2 2 2 2 2 2 2 2 2 2 2 2 2 2 2 3 3 3 4 4 4 5 5 5 5 6 7 8 8 9 10
4 4 4 4 4 4 4 4 4 4 4 3 3 3 3 3 3 3 3 3 3 3 3 3 3 3 2 2 2 2 2 2 2 2 2 2 2 2 2 2 2 2 2 2 2 2 2 2 3 3 4 4 4 4 5 5 5 5 6 7 7 8 9
4 4 4 3 4 4 4 4 4 4 4 4 4 3 3 3 3 4 4 4 3 3 3 3 3 3 3 2 2 2 2 2 2 2 2 2 2 2 2 2 2 2 2 2 2 2 2 2 3 3 3 4 4 4 4 5 5 5 5 6 7 7 8
4 4 4 4 4 4 4 4 4 4 4 4 3 3 3 3 4 4 4 4 4 3 3 3 3 2 2 2 2 2 2 2 2 2 2 2 2 2 2 2 2 2 2 2 2 2 2 2 2 3 3 4 4 3 4 4 5 5 5 5 6 7 7
4 4 4 4 4 4 5 4 4 4 4 4 3 3 3 4 4 4 4 3 3 3 3 3 3 3 3 2 2 2 2 2 2 2 2 2 2 2 2 2 2 2 2 2 2 2 2 2 2 2 3 3 4 3 3 4 4 4 5 5 5 6 7
4 4 4 4 4 4 5 5 4 4 4 3 3 3 3 4 4 4 4 3 3 3 3 3 3 3 3 3 2 2 2 2 2 2 2 2 2 2 2 2 2 2 2 2 2 2 2 2 2 2 2 3 3 3 3 3 4 4 4 5 5 5 6
4 4 4 4 4 4 5 5 4 4 4 3 3 3 3 4 4 4 3 3 3 3 3 3 3 3 3 3 3 3 2 2 2 2 2 2 2 2 2 2 2 2 2 2 2 2 2 2 2 2 2 2 3 3 3 3 3 4 4 4 5 5 5
4 4 4 4 4 4 5 5 5 4 4 3 3 3 4 4 4 3 3 3 3 3 3 3 3 3 3 3 3 2 3 2 2 3 3 3 3 3 2 2 2 2 2 2 2 2 2 2 3 2 2 2 3 3 3 3 3 4 4 4 4 5 5
4 4 4 4 4 4 4 6 5 4 4 3 3 3 4 4 4 3 3 3 3 3 3 3 3 3 3 3 3 2 3 2 2 2 3 3 3 3 2 2 2 2 2 2 2 2 2 2 3 3 3 3 3 3 3 3 4 4 4 4 4 5 5
4 4 4 3 4 4 4 6 6 5 4 4 3 4 4 4 4 3 3 3 3 3 3 3 3 3 3 3 3 3 2 2 2 2 2 3 3 2 2 2 2 2 2 2 2 2 2 2 3 3 3 3 3 3 3 3 3 4 4 3 4 4 4
4 4 4 3 4 4 5 6 6 5 4 4 4 4 4 4 4 4 4 4 3 3 4 3 3 3 3 3 3 3 3 3 2 2 3 3 3 3 3 3 2 2 2 2 2 2 2 3 3 3 3 3 3 3 3 3 3 3 4 3 3 4 4
5 4 4 4 4 4 4 5 6 5 4 4 4 4 4 4 4 4 4 4 4 4 3 3 3 3 3 3 3 3 3 3 3 3 3 3 3 3 3 2 3 3 2 2 2 2 2 3 3 3 3 3 3 3 3 3 3 3 3 4 3 4 4
5 4 4 4 4 4 4 5 6 5 4 4 4 4 4 4 4 4 4 4 4 4 4 4 4 3 3 3 3 3 3 3 3 3 3 3 3 3 3 3 3 3 2 2 2 2 2 2 3 3 3 3 3 3 3 3 3 3 3 4 4 4 4
5 5 4 4 4 4 4 5 6 5 5 4 4 4 4 4 4 4 4 4 4 4 4 4 4 3 3 3 3 3 3 3 3 3 3 3 3 3 3 3 3 3 3 2 2 2 2 2 2 3 3 3 3 3 3 3 3 3 3 3 4 4 4
5 5 4 4 4 4 4 5 5 5 5 5 4 4 4 4 4 4 4 4 4 4 4 4 4 4 3 3 3 3 3 3 3 3 3 3 3 3 3 3 3 3 3 3 3 3 2 2 3 3 3 3 3 3 3 3 3 3 3 3 3 4 4
6 6 5 4 4 4 4 5 5 5 5 4 4 5 4 4 4 4 4 4 4 4 4 4 4 4 3 3 4 3 3 3 3 3 3 3 3 3 3 3 3 3 3 3 3 3 3 2 3 3 3 3 3 3 3 3 3 3 3 3 3 3 4
6 6 6 5 4 4 4 4 5 4 5 5 4 5 5 4 5 5 5 5 4 4 4 4 4 4 4 3 4 3 3 4 3 3 3 3 3 3 3 3 3 3 3 3 3 3 3 3 2 3 3 3 3 3 3 3 3 3 3 3 3 3 3
7 8 7 6 5 5 4 5 5 5 4 5 5 5 5 5 5 5 5 5 5 4 4 4 4 4 4 4 4 4 3 4 3 3 4 3 3 3 3 3 3 3 3 3 3 3 3 3 3 3 3 3 3 3 3 3 3 3 3 3 3 3 3
7 8 9 8 6 5 5 5 5 5 5 5 5 5 5 5 5 5 5 5 5 5 5 4 4 4 4 4 4 3 4 4 3 3 4 4 4 4 3 3 3 3 3 3 3 3 3 3 3 3 3 3 3 3 3 3 3 3 3 3 3 3 3
7 7 9 9 8 6 5 5 5 5 5 5 5 5 5 5 5 5 5 5 5 5 5 4 4 4 4 4 4 4 4 4 4 4 4 4 4 4 4 3 3 3 3 3 3 3 3 3 3 3 3 3 3 3 3 3 3 3 3 3 3 3 3
7 7 8 9 9 8 6 6 6 6 5 5 5 5 5 5 5 5 5 5 5 5 5 4 4 4 4 4 4 4 4 4 4 4 4 4 4 4 4 4 3 3 3 3 3 3 3 3 3 3 3 3 3 3 3 3 3 3 3 3 3 3 3
8 8 7 8 8 8 7 6 6 6 6 5 5 5 5 6 6 6 5 5 5 5 5 4 4 4 4 4 4 4 4 4 4 4 4 4 4 4 4 4 4 4 4 4 3 3 3 3 3 3 3 3 3 3 3 3 3 3 3 3 3 3 3
7 7 7 7 8 8 7 6 6 6 6 6 6 6 6 6 6 6 6 5 5 5 5 5 5 4 4 4 4 4 4 4 4 4 4 4 4 4 4 4 4 4 4 4 4 4 3 4 3 3 3 3 3 3 3 3 3 3 3 3 3 3 3
7 7 7 7 7 7 8 7 6 6 6 6 6 6 6 6 6 6 6 6 5 5 5 5 5 5 4 4 4 4 4 4 4 4 4 4 4 4 4 4 4 4 4 4 4 4 4 3 4 3 3 3 3 3 3 3 3 3 3 3 3 3 3
7 7 7 7 7 7 8 8 7 6 6 6 6 6 6 6 6 6 6 6 6 5 5 5 5 5 5 4 5 5 4 5 4 4 4 4 4 4 4 4 4 4 4 4 4 4 4 3 4 3 3 3 3 3 3 3 3 3 3 3 3 3 3
Wind_Speed
108 108 109 109 109 110 110 111 111 112 112 113 113 114 114 114 114 115 114 114 114 114 114 114 113 114 115 116 117 117 118 118 119 120 121 121 121 121 119 118 117 114 113 116 123 125 127 131 133 134 135 137 137 137 137 136 133 131 128 126 123 121 121
103 103 104 104 104 104 105 105 105 106 106 107 107 108 108 109 109 110 110 111 111 112 112 112 111 111 112 113 113 113 114 115 116 117 118 119 119 119 119 118 117 114 112 114 119 123 125 129 133 133 134 136 137 138 139 139 137 135 132 129 127 125 123
98 99 99 100 100 100 100 100 101 101 101 101 102 102 103 103 104 104 105 106 107 108 109 109 108 109 110 110 109 109 110 111 113 114 115 115 117 117 117 117 116 114 112 113 116 120 122 126 131 133 133 135 137 137 139 140 140 139 136 133 131 129 127
94 95 95 96 96 96 97 97 97 97 97 97 97 97 98 99 99 100 101 102 103 104 104 105 104 105 106 107 107 106 107 108 109 111 112 112 113 114 114 115 115 113 112 112 114 117 120 123 128 131 133 135 136 137 138 140 141 141 140 137 135 133 131
90 90 91 91 91 92 92 93 93 93 93 93 93 93 93 95 96 97 98 98 99 100 101 101 101 101 103 103 103 104 104 105 105 106 108 108 109 111 112 112 112 111 110 111 112 114 118 121 125 128 131 134 136 137 138 139 141 142 143 141 139 136 134
86 87 87 87 87 87 88 88 88 88 88 88 89 89 90 91 92 93 94 95 96 97 98 98 98 99 99 99 99 100 101 101 101 102 103 104 105 107 108 109 109 109 109 109 110 112 116 119 123 125 129 132 135 137 138 139 140 142 144 144 142 140 138
83 83 84 84 84 84 84 84 84 84 84 84 84 85 86 87 89 90 91 92 94 95 96 96 96 96 96 96 96 96 97 97 98 98 98 99 101 103 105 106 106 107 108 107 107 110 113 117 121 124 126 130 133 135 137 139 141 142 144 145 145 143 141
80 81 81 81 80 80 80 80 80 80 80 80 81 82 83 84 85 87 88 89 91 92 93 93 93 93 93 94 94 94 94 94 94 95 95 96 98 100 101 102 103 105 106 106 106 107 110 115 119 122 125 128 132 133 135 139 141 142 143 145 146 145 144
78 78 78 78 77 77 77 77 77 77 77 78 78 79 80 81 82 83 85 87 88 89 90 90 90 90 90 91 91 92 92 92 92 92 92 93 95 96 97 98 100 102 103 104 105 106 108 112 116 120 124 127 130 131 133 137 140 142 143 145 146 146 146
76 75 75 75 74 74 74 74 74 74 75 76 76 77 77 78 79 81 82 83 84 85 85 85 86 86 87 88 88 89 89 89 90 90 89 91 92 93 93 94 96 98 100 101 103 104 107 110 112 116 121 125 128 130 132 134 137 140 142 144 145 145 147
73 73 73 72 71 71 71 71 71 71 72 73 74 74 74 74 76 78 79 80 80 81 81 81 82 82 84 84 85 86 87 87 87 88 87 87 89 89 89 90 91 93 96 98 100 101 104 107 109 113 118 123 126 129 131 132 134 137 141 144 145 145 147
71 71 70 69 67 67 67 67 68 68 69 70 72 72 71 71 72 73 75 76 76 77 77 77 78 78 79 81 82 83 84 85 85 85 84 84 85 85 86 87 88 89 91 94 96 98 101 103 106 110 114 119 124 128 130 130 132 134 138 142 144 145 146
69 68 67 66 64 63 64 65 65 65 67 69 70 70 69 68 67 68 70 72 72 73 74 74 74 75 76 77 79 80 81 82 82 82 82 81 82 82 83 84 85 86 87 89 91 94 97 100 103 107 111 116 121 126 129 129 130 132 135 139 142 144 146
67 66 65 63 61 60 62 63 63 64 66 68 68 68 66 64 63 64 66 68 69 70 71 72 72 72 73 74 74 75 77 78 79 79 79 79 79 80 80 81 82 83 84 86 88 90 92 97 101 104 108 113 119 123 126 127 129 132 134 136 139 142 145
65 64 63 61 59 58 60 61 61 62 64 66 66 65 62 59 59 61 63 65 67 68 69 70 69 69 70 71 71 71 72 74 76 77 77 77 77 78 78 78 79 80 82 84 85 86 89 93 98 101 105 111 117 120 123 126 129 131 133 134 135 139 143
63 62 61 59 56 55 57 60 60 61 63 64 63 60 57 55 56 58 61 63 65 65 66 66 66 66 67 68 69 69 69 70 72 74 74 75 75 76 76 76 77 79 80 81 83 84 86 90 95 98 102 108 113 116 120 124 128 129 130 131 132 135 139
61 61 59 57 54 53 54 57 59 60 61 61 59 55 51 50 53 57 60 62 61 61 60 61 61 62 64 66 67 67 66 67 67 69 71 72 73 73 73 74 76 78 79 79 81 82 84 86 91 95 100 104 108 112 116 121 124 125 127 128 130 132 135
60 60 58 55 52 50 50 54 58 60 60 58 55 50 47 48 52 56 58 59 58 56 55 56 57 58 60 63 65 65 64 63 63 64 66 68 69 70 71 73 76 77 76 76 77 78 80 83 87 91 96 100 103 107 112 116 119 121 123 125 126 129 132
58 58 57 53 51 48 47 51 57 60 58 55 51 47 45 47 51 54 55 55 54 53 52 53 54 55 57 59 62 62 62 61 59 60 62 64 66 68 71 73 74 73 72 72 73 74 77 79 83 87 91 95 99 103 107 110 113 117 121 123 123 126 129
57 57 55 52 49 47 45 48 55 59 56 52 49 45 44 47 50 50 51 51 50 50 50 51 53 53 54 56 59 60 60 59 58 57 59 62 64 67 70 71 70 70 70 70 70 72 74 76 79 82 86 91 95 100 104 107 110 115 120 121 121 123 127
56 55 54 51 48 45 44 46 52 56 54 50 46 43 44 47 47 47 48 48 47 47 49 49 50 51 52 53 56 57 58 58 56 55 57 59 61 64 66 67 67 68 68 68 68 69 71 73 76 79 82 86 91 96 101 104 107 112 116 117 117 120 124
55 54 53 51 47 44 42 44 49 52 51 47 43 41 43 45 45 44 45 46 44 45 46 47 47 48 49 51 52 54 55 55 54 54 54 56 58 60 62 63 65 66 66 66 66 67 68 70 73 76 79 83 87 93 97 101 104 107 111 112 113 117 120
53 53 52 50 47 43 41 43 47 49 48 45 42 40 41 42 42 42 43 43 42 42 43 44 45 46 47 48 49 50 51 52 52 52 53 54 55 57 59 60 62 63 64 64 64 65 66 69 71 74 77 80 84 89 93 96 99 102 105 107 110 113 116
52 53 52 50 47 43 40 41 45 46 45 44 42 40 40 40 40 40 40 40 40 40 40 42 43 43 44 45 47 47 48 49 50 51 51 52 53 55 56 57 59 61 61 62 63 64 65 67 69 72 75 77 80 84 87 91 94 96 99 102 106 109 112
51 52 51 49 46 43 40 40 43 44 44 43 41 40 39 39 38 39 38 38 37 38 38 39 40 41 42 43 44 45 46 47 48 49 49 50 51 52 53 55 57 58 59 60 61 62 63 64 66 69 71 74 76 79 83 87 90 93 95 98 102 105 108
50 52 52 50 48 44 41 40 41 41 41 41 40 39 38 38 37 37 37 36 36 36 36 37 39 39 40 41 42 43 44 44 45 46 47 48 49 50 51 53 54 56 57 58 59 60 61 62 63 66 68 70 73 75 79 82 86 89 91 93 97 101 104
50 52 52 51 49 46 42 40 39 39 38 39 38 37 37 37 36 36 36 36 35 35 35 35 37 38 39 39 40 41 42 42 43 44 45 46 47 48 49 50 51 53 54 56 57 58 59 60 62 64 66 68 70 72 75 78 81 85 88 90 93 97 100
50 52 52 52 50 47 44 42 40 39 38 38 37 36 36 36 36 36 36 35 35 35 34 34 35 36 37 38 39 40 40 41 41 42 42 43 44 45 46 47 49 50 52 53 54 55 57 58 60 62 63 65 68 70 72 74 77 80 83 86 89 92 97
49 52 53 53 52 50 47 45 43 41 39 38 37 36 35 34 34 35 35 35 34 34 34 33 34 34 35 36 37 38 39 39 39 40 40 41 42 43 44 45 46 48 49 51 52 53 54 56 58 59 61 63 65 67 69 71 73 76 79 82 85 89 94
46 48 50 52 52 50 47 46 44 42 40 39 38 37 35 34 33 34 34 34 34 33 33 33 33 33 34 35 36 36 37 37 38 38 39 39 40 41 42 43 44 46 47 49 50 51 52 53 55 57 59 60 62 64 66 67 70 72 75 78 82 86 90
43 44 46 48 49 49 48 45 44 42 39 37 37 36 35 34 33 33 33 33 33 32 32 32 32 32 32 33 34 35 35 36 36 37 37 38 38 39 40 41 42 44 45 46 47 48 50 51 53 55 57 58 60 61 63 65 67 69 72 75 79 83 87
42 43 44 45 46 47 46 45 43 42 40 37 35 35 34 33 32 32 32 32 31 31 31 31 31 31 31 31 32 33 33 34 35 35 36 36 37 37 38 39 40 41 42 44 45 46 48 49 50 52 54 56 57 59 61 62 64 66 69 71 75 79 83
42 41 42 42 43 44 44 42 40 40 39 37 35 34 33 33 32 31 31 31 30 30 29 29 30 30 30 30 30 30 31 32 33 33 34 35 35 36 36 36 38 39 40 42 43 44 46 47 48 50 52 53 55 57 58 60 62 64 66 68 71 74 78
44 42 41 41 41 41 42 41 38 36 36 36 34 33 32 32 31 31 30 30 29 29 28 28 28 28 28 28 28 28 29 30 30 31 32 33 34 34 34 35 36 37 38 40 41 42 43 45 46 48 49 51 53 54 56 58 60 62 63 65 68 70 73
46 44 42 40 39 39 40 41 39 36 34 33 33 32 31 30 30 30 30 29 28 27 27 27 27 27 27 26 26 26 26 27 28 29 30 31 31 32 32 33 34 35 36 38 39 40 41 43 44 46 47 49 51 52 54 56 58 59 61 63 65 67 70
46 45 43 41 39 37 36 37 38 37 35 33 31 31 30 30 29 29 29 28 27 27 26 26 26 26 26 25 25 24 25 25 25 26 28 28 29 30 31 32 32 33 35 36 37 38 40 41 42 44 46 47 49 50 52 54 55 57 59 60 62 64 66
Wind_Direction
278 277 276 276 275 274 274 273 273 272 272 272 271 271 271 270 270 270 269 269 268 267 266 265 264 263 261 261 260 259 258 257 256 255 255 254 253 252 251 249 246 243 240 239 241 240 240 240 239 239 239 239 238 237 237 236 235 235 234 234 233 233 234
278 278 277 276 276 275 275 274 273 273 272 272 271 271 271 270 270 270 269 269 268 267 267 266 265 264 262 261 260 259 258 257 256 255 254 253 253 252 251 249 247 244 241 239 239 239 239 239 239 238 237 238 237 236 236 236 235 234 233 233 232 232 232
279 278 278 277 277 276 276 275 274 274 273 272 272 272 271 271 270 270 269 268 268 267 266 265 265 264 263 262 260 259 258 257 256 255 253 253 252 251 250 249 247 245 242 239 238 239 238 238 239 238 237 237 237 236 235 235 235 234 233 232 232 231 231
279 278 278 278 277 277 276 276 275 275 274 274 273 272 272 271 271 270 269 268 267 266 266 265 264 263 262 262 261 259 258 257 255 254 253 252 251 251 250 249 247 245 243 241 239 238 238 237 238 238 237 236 236 236 235 235 234 234 233 232 231 231 231
280 279 278 278 277 277 276 276 276 275 275 274 274 273 272 271 271 270 269 268 267 266 266 265 264 262 261 261 260 259 258 257 255 254 253 252 251 250 249 248 248 246 244 242 239 238 237 237 237 237 237 236 235 235 235 234 234 234 233 232 231 231 230
281 280 279 279 278 277 277 276 276 275 275 274 274 273 272 271 270 270 269 268 267 266 265 265 263 262 261 260 260 259 258 257 256 255 253 253 252 251 250 248 247 246 244 242 240 238 237 237 237 237 236 236 235 235 234 234 234 233 233 233 232 231 230
282 281 281 280 279 279 278 278 277 276 276 275 274 273 272 271 270 269 268 268 267 266 265 265 264 263 262 261 260 259 258 257 257 256 254 253 252 251 250 248 247 246 245 243 240 238 237 236 236 236 236 236 235 234 234 234 233 233 233 233 232 231 230
283 283 282 282 281 281 280 280 279 278 277 276 274 273 272 271 270 269 268 267 266 266 265 265 264 264 263 262 262 260 259 258 257 256 255 253 252 251 249 248 247 245 244 243 240 238 236 236 235 235 235 235 236 235 233 233 233 233 233 233 232 231 231
285 284 284 283 283 282 282 281 280 279 278 277 276 274 273 272 271 270 269 268 267 266 266 265 265 264 264 263 263 262 260 259 257 256 255 254 253 251 250 248 247 246 244 242 240 238 237 235 234 235 235 235 235 235 234 233 233 233 232 232 232 232 231
286 285 285 284 284 283 282 282 281 280 279 277 276 275 274 273 272 270 269 268 267 267 267 266 266 265 264 263 263 262 261 260 258 257 255 254 253 252 250 249 247 246 245 243 240 239 237 235 234 233 234 234 235 235 234 233 233 233 232 232 232 232 231
287 286 285 285 285 284 284 282 281 280 279 278 276 274 273 272 271 271 270 270 269 268 267 266 265 265 264 263 262 262 261 260 259 257 256 254 253 252 251 250 248 247 245 243 241 239 237 236 234 233 233 234 234 234 234 233 233 232 232 232 232 232 232
288 287 287 286 286 286 285 284 282 281 280 278 276 275 273 272 271 271 271 271 270 269 268 267 265 264 263 262 262 261 260 259 259 258 256 255 254 252 251 250 248 247 246 244 242 240 238 236 235 233 232 233 234 234 233 233 233 232 232 232 232 232 231
289 289 288 288 288 288 287 285 283 282 280 278 277 276 275 274 273 273 273 272 271 270 269 267 265 263 262 260 260 260 259 259 258 257 256 255 254 252 251 249 248 247 245 244 242 240 239 237 235 233 232 232 233 233 233 232 232 232 232 232 232 232 231
291 291 291 290 290 290 288 286 284 283 281 279 278 277 277 277 276 275 273 272 271 269 268 266 265 263 262 260 259 259 258 258 258 257 256 254 253 252 250 249 247 246 245 244 242 240 238 237 235 233 232 232 232 232 233 232 232 232 232 231 231 231 232
293 293 292 292 292 291 289 287 285 283 281 280 279 279 279 279 278 275 273 270 269 267 267 266 265 264 263 262 260 258 257 257 257 256 255 254 253 251 250 249 247 245 244 242 241 239 237 236 235 233 232 231 232 232 232 232 231 231 231 231 231 231 231
294 294 294 294 294 293 291 288 286 284 282 281 281 281 282 281 279 275 272 269 268 267 267 267 267 266 265 264 262 259 257 256 255 255 255 254 253 251 250 249 247 245 243 241 240 239 237 236 234 233 231 231 231 231 231 232 231 231 231 231 230 231 231
296 295 295 296 295 295 293 290 288 285 283 282 283 283 284 283 280 276 273 271 270 269 269 268 268 267 266 264 263 261 258 256 255 255 255 255 254 252 251 250 248 246 243 241 240 238 237 236 235 233 232 231 231 231 231 231 232 232 231 231 230 230 231
298 297 298 298 297 296 295 293 290 287 285 285 285 286 287 284 279 276 274 273 272 272 270 269 267 265 264 263 263 261 260 258 256 255 255 254 254 253 251 249 247 245 244 242 240 239 238 237 236 234 233 232 231 231 231 231 232 232 232 231 230 230 230
301 300 300 300 299 298 297 295 291 288 288 289 290 290 289 284 280 277 276 275 274 273 271 268 266 264 262 262 262 261 259 258 255 253 253 253 252 251 249 248 247 246 245 243 241 239 238 237 237 236 234 232 231 231 231 231 231 232 232 231 230 230 230
303 302 302 301 301 300 299 296 293 291 291 293 294 293 290 285 281 280 278 277 275 273 271 268 266 264 262 261 261 260 259 257 255 253 251 250 250 249 249 249 248 246 245 243 241 239 238 236 236 236 234 233 231 231 231 230 230 230 231 231 229 229 229
305 304 303 303 303 302 301 298 294 292 294 295 295 293 290 285 283 282 280 278 276 274 272 269 268 266 264 262 261 260 260 258 256 253 252 250 250 249 249 249 248 247 245 243 241 239 237 236 235 235 234 233 232 230 230 230 229 229 230 230 229 229 229
307 306 305 305 305 304 302 298 295 294 295 296 294 293 289 286 285 284 281 279 277 275 273 271 269 267 265 263 262 261 260 259 257 254 252 251 250 249 249 248 248 247 245 244 241 239 237 236 235 234 234 233 232 231 230 230 229 229 230 230 229 229 229
310 308 307 307 306 306 304 301 298 296 297 296 295 294 290 288 287 285 282 281 279 276 274 272 270 267 265 264 262 261 259 258 257 255 252 250 249 248 248 247 247 246 245 243 241 239 237 236 234 234 233 232 232 231 230 230 229 229 230 230 230 229 229
312 310 308 308 308 308 307 304 301 300 300 299 299 297 293 290 289 287 284 283 280 278 276 273 271 268 266 264 262 261 259 257 256 254 252 250 249 248 247 246 246 245 244 243 241 239 237 236 234 233 233 232 232 231 231 230 230 229 229 229 230 230 229
313 311 310 310 310 311 311 309 305 304 303 301 300 298 295 293 291 289 287 285 283 280 277 274 272 269 266 264 262 261 259 257 255 254 252 250 249 247 246 245 245 244 243 242 241 239 238 236 235 234 233 233 232 231 231 230 229 229 228 228 229 230 229
316 314 313 313 314 314 314 311 307 305 303 302 301 299 297 295 293 292 290 288 285 282 279 275 272 270 267 265 263 261 259 258 256 254 252 251 249 248 246 245 244 244 243 242 240 239 238 236 235 234 233 233 232 232 231 230 229 229 228 227 227 229 229
319 316 315 314 315 315 314 311 308 307 305 303 302 301 300 298 297 295 293 291 288 284 281 276 273 271 268 266 264 262 260 258 256 255 253 251 250 248 247 245 244 244 243 242 240 238 237 236 235 234 233 232 231 231 231 230 229 229 228 227 226 227 228
321 318 316 316 316 317 317 315 313 311 309 306 304 303 302 300 299 297 295 292 290 286 282 278 274 272 269 267 265 263 260 259 257 255 254 252 250 249 247 246 245 244 243 242 241 239 237 236 235 234 233 232 232 231 230 230 230 229 228 227 226 226 227
323 320 318 318 318 319 319 317 316 314 312 309 307 306 304 302 300 298 296 293 290 287 283 280 276 272 270 267 265 263 261 259 257 256 254 252 250 249 247 246 245 243 242 241 240 239 237 236 236 235 234 233 232 231 230 229 229 228 228 227 227 226 226
323 320 317 317 317 317 318 317 315 314 313 311 309 307 306 304 301 299 296 294 291 288 284 281 277 274 270 268 265 263 262 260 258 257 255 253 250 248 247 245 244 243 242 240 239 238 237 235 235 234 234 233 232 232 231 230 229 228 227 227 226 227 227
324 321 318 316 315 316 317 316 314 313 312 310 309 308 307 305 303 300 297 294 291 288 285 282 278 275 272 268 266 264 262 261 259 257 256 254 251 249 247 245 244 243 242 240 239 238 236 235 234 234 234 233 232 231 231 230 229 228 227 227 226 226 227
326 323 319 316 314 314 315 315 314 312 311 310 309 308 307 305 303 301 298 295 292 289 286 283 280 276 273 269 267 264 262 261 260 258 256 254 252 250 248 246 244 243 242 241 239 238 236 235 234 233 233 233 232 231 230 230 229 228 227 227 227 227 227
328 325 321 317 315 313 313 313 312 311 311 311 310 309 307 306 304 302 299 297 294 291 288 284 281 278 274 271 268 265 263 261 259 258 256 255 253 251 249 247 245 243 242 240 239 238 236 235 234 233 232 232 231 231 230 230 229 229 228 227 226 227 227
329 327 324 320 317 315 313 313 312 311 310 310 310 309 308 307 306 304 301 298 296 293 289 286 283 280 276 272 268 265 263 260 259 257 256 255 253 252 250 247 245 243 242 240 239 238 236 235 234 233 232 231 231 230 230 229 229 228 228 227 227 226 226
329 328 327 324 320 318 316 315 314 314 312 311 311 310 309 308 307 305 303 300 298 295 291 288 285 281 277 273 270 267 263 260 258 257 255 254 253 251 250 248 245 243 241 240 239 237 236 234 233 232 231 230 230 229 229 229 228 228 228 228 227 227 226
330 328 327 326 323 320 318 317 316 315 315 314 313 311 310 309 308 306 304 302 299 297 293 290 287 283 279 275 271 268 265 262 259 257 256 254 253 251 250 248 246 243 242 240 238 237 236 234 233 232 231 230 229 229 228 228 228 228 228 227 227 227 227